Regional Weather Roundup
Issued by NWS Wakefield, VA

Home | Current Version | Previous Version | Text Only | Print | Product List | Glossary Off
Versions: 1 2 3 4 5 6 7 8 9 10 11 12 13 14 15 16 17 18 19 20 21 22 23 24 25 26 27 28 29 30 31 32 33 34 35 36 37 38 39 40 41 42 43 44 45 46 47 48 49 50

000
ASUS41 KAKQ 180810
RWRAKQ

REGIONAL WEATHER ROUNDUP
NATIONAL WEATHER SERVICE WAKEFIELD VA
400 AM EDT THU SEP 18 2014

Note: "fair" indicates few or no clouds below 12,000 feet with no
significant weather and/or obstructions to visibility. * = Denotes
station may not report precipitation (e.g., rain,snow,etc.),
thunder or fog.

VAZ042-051-052>054-056-180900-
NORTHERN VIRGINIA

CITY           SKY/WX    TMP DP  RH WIND       PRES   REMARKS
WASH NATIONAL  CLOUDY    66  53  63 SW3       29.98R
DULLES         CLOUDY    54  52  93 CALM      29.97F
FORT BELVOIR   CLOUDY    58  56  93 CALM      29.98R
QUANTICO       CLOUDY    60  56  86 NW6       29.98S
FREDERICKSBRG* CLOUDY    58  58  98 CALM      29.96S
STAFFORD*      CLOUDY    55  55 100 CALM      30.01S
WARRENTON      CLOUDY    52  52 100 CALM      29.97S
CULPEPER*      CLEAR     52  52 100 CALM      29.98S FOG
MANASSAS*      CLOUDY    55  54  94 CALM      29.97S
LEESBURG*      CLOUDY    55  55 100 CALM      29.98S
WINCHESTER     CLEAR     52  50  93 W3        29.97R
FRONT ROYAL*   SUNNY     52  50  93 CALM      29.96S
LURAY*         SUNNY     52  52 100 CALM      29.97S
$$

VAZ048-049-060>072-079>083-180900-
CENTRAL AND SOUTH CENTRAL VIRGINIA...AND NORTH CENTRAL NORTH CAROLINA

CITY           SKY/WX    TMP DP  RH WIND       PRES   REMARKS
RICHMOND       PTCLDY    58  56  93 CALM      29.96S
CHESTERFIELD*  MOSUNNY  N/A N/A N/A CALM      29.97S
PETERSBURG*    CLEAR     54  53  97 CALM      29.97S
HANOVER        CLEAR     56  55  97 CALM      29.98S
TAPPAHANNOCK*  PTCLDY    54  51  90 CALM      29.97S
CHARLOTTSVILLE CLOUDY    56  54  93 CALM      29.97S
ORANGE*        CLOUDY    54  52  94 CALM      29.99R
LOUISA*        MOCLDY    59  55  88 CALM      29.96S
FARMVILLE*     MOCLDY    57  55  94 CALM      29.95S FOG
CREWE*         MOSUNNY   56  55  94 CALM      29.96S
FORT PICKETT*  PTSUNNY   58  57  97 CALM      29.96F
LUNENBURG*     PTSUNNY   58  58  97 CALM      29.96S
SOUTH HILL*      N/A     59  59 100 CALM      30.01S
LAWRENCEVILLE* MOSUNNY   56  56 100 CALM      29.95S
ROANOKE RAPIDS SUNNY     55  55 100 CALM      29.95S FOG
RALEIGH        PTCLDY    61  58  90 CALM      29.95S
$$

VAZ088>098-180900-
SOUTHEAST VIRGINIA

CITY           SKY/WX    TMP DP  RH WIND       PRES   REMARKS
NORFOLK        PTCLDY    63  59  87 CALM      29.93F
VIRGINIA BEACH CLEAR     59  55  87 N3        29.93S
NORFOLK NAVAL  PTCLDY    63  57  81 CALM      29.95S
WEST POINT*    CLEAR     57  55  92 CALM      29.97S
NEWPORT NEWS   CLEAR     60  56  86 N3        29.95S
LANGLEY AFB    CLEAR     60  60 100 CALM      29.94S
FORT EUSTIS    CLEAR     59 N/A N/A CALM      29.93S
WILLIAMSBURG*  CLEAR     61  61 100 CALM      29.96S
HR EXEC AP*    SUNNY     54  50  87 CALM      29.96S
FRANKLIN*      CLEAR     55  55 100 CALM      29.94F
WAKEFIELD      MOCLDY    57  54  89 CALM      29.95S
$$

VAZ020-022-025-037-045-180900-
WEST CENTRAL AND SOUTHWEST VIRGINIA

CITY           SKY/WX    TMP DP  RH WIND       PRES   REMARKS
STAUNTON*      MOCLDY    52  49  91 CALM      30.00S
HOT SPRINGS VA CLEAR     50  43  76 W9        30.05S
LYNCHBURG      MOCLDY    57  57 100 CALM      29.99R
DANVILLE       MOCLDY    60  58  92 CALM      29.96S
SOUTH BOSTON*  NOT AVBL
MARTINSVILLE   CLOUDY    58  58 100 CALM      30.00S FOG
ROANOKE        CLOUDY    58  55  90 CALM      30.01R
BLACKSBURG     MOCLDY    57  57 100 CALM      30.03S FOG
DUBLIN*        MOCLDY    58  58 100 CALM      30.02S FOG
MARION*        FOG       55  54  95 CALM      30.04S VSB 1/4
HILLSVILLE*    CLOUDY    56  56  99 S3        30.02F FOG
RICHLANDS*     FOG       57  56  95 CALM      30.02R VSB<1/4
WISE*          FOG       54  54 100 CALM      30.04S VSB<1/4
ABINGDON*      CLEAR     56  56 100 CALM      30.00S FOG
$$

MDZ021>025-VAZ099-100-180900-
SOUTHERN MARYLAND AND THE DELMARVA PENINSULA

CITY           SKY/WX    TMP DP  RH WIND       PRES   REMARKS
PATUXENT RIVER CLOUDY    61  57  87 SW3       29.96S
BAY BRIDGE APT   N/A     64  50  59 S3        29.97R
LEONARDTOWN    CLOUDY    57  54  88 CALM      29.98S
DOVER          CLEAR     56  51  85 SW1       29.94F
GEORGETOWN     CLEAR     52  48  86 CALM      29.97S
EASTON         CLOUDY    56  56 100 CALM      30.00S
CAMBRIDGE      PTCLDY    54  50  87 CALM      29.97R
SALISBURY      CLEAR     54  48  80 CALM      29.97S
OCEAN CITY     CLEAR     53  49  86 NW3       29.96S
WALLOPS ISLAND CLEAR     56  53  90 NW3       29.96F
ACCOMACK*      CLEAR     54  52  94 NE5       29.95F FOG
$$

NCZ012>017-030>032-180900-
EASTERN NORTH CAROLINA

CITY           SKY/WX    TMP DP  RH WIND       PRES   REMARKS
ELIZABETH CITY CLOUDY    67  61  81 N3        29.93S
AHOSKIE*       CLEAR     59  57  95 CALM      29.95S
EDENTON*       MOCLDY    63  62  96 CALM      29.93F
CURRITUCK*     CLOUDY    68  56  63 CALM      29.94S
KILL DEVIL HLS PTCLDY    70  58  65 NE6       29.91S
MANTEO         PTCLDY    69  59  69 NE9       29.92S
CAPE HATTERAS  CLEAR     69  62  78 NE7       29.90S
TARBORO*       MOSUNNY   59  58  96 CALM      29.94S FOG
GOLDSBORO      CLEAR     64  63  98 CALM      29.91S
WASHINGTON     CLEAR     61  60  96 CALM      29.93S
GREENVILLE     PTCLDY    63  61  94 CALM      29.95S
NEW BERN       MOCLDY    68  63  84 NE5       29.92S
WILMINGTON     CLOUDY    67  65  93 N5        29.90R
$$

VAZ048-180900-
ELSEWHERE

CITY           SKY/WX    TMP DP  RH WIND       PRES   REMARKS
HARRISBURG PA  MOCLDY    53  49  86 CALM      29.97S
BALTIMORE      MOCLDY    56  53  90 CALM      29.96S
ANNAPOLIS      CLOUDY    63  57  81 CALM      29.96S
ANDREWS AFB    CLOUDY    57  54  88 CALM      29.97S
WILMINGTON DE  CLEAR     53  51  93 NW5       29.98S
PHILADELPHIA   CLEAR     58  52  80 N3        29.97S
WILDWOOD NJ*   CLEAR     52  48  87 CALM      29.97S
ATLANTIC CITY  CLEAR     50  48  93 NW3       29.96F
HENDERSON NC   CLEAR     59  57  94 CALM      29.96S FOG
GREENSBORO     CLEAR     62  61  96 CALM      29.95S FOG
ROCKY MOUNT    CLEAR     59  58  96 CALM      29.93F FOG
FAYETTEVILLE   MOCLDY    66  64  93 NE5       29.91F
CHARLOTTE      CLOUDY    63  62  97 CALM      29.94S FOG
$$

VAZ100-180900-
MARINE

STATION/POSITION TIME  TEMP    WIND        PRES    WAVE   SWELL
                       AIR SEA DIR/SP/G            HT/PER HT/PER
                 (UTC) (F)     (DEG/KT/KT) (MB)    (FT/S) (FT/S)
44066 TX TWR #4  0800   67 73   30/  8/ 10 1013.8F   5/13   5/13
CAPE MAY NJ      0800   60 75   CALM  /  1 1013.9F
LEWES DE         0800   58 72  250/  2/  3 1014.3S
15NM E FENWICK I 0800   68 72              1014.2R   4/14
OCEAN-CITY-INLET 0800   62 71  350/  3/  4 1014.0S
WACHAPREAGUE VA  0800   57 74  300/  1/  2 1014.3S
THOMAS POINT MD  0800   69 74  210/  9/ 11 1015.6R
GOOSES REEF MD   0800   69     170/  8/ 10 1015.0S
COVE POINT MD    0800   67     250/  4/  5 1014.4F
SOLOMONS ISLAND  0800      76                N/A
BISHOPS HEAD MD  0800   68 72  130/  5/  7 1014.0F
PINEY POINT MD   0800          210/  4/  5   N/A
POTOMAC MD       0800   70     200/  6/  8 1013.9S
CAMBRIDGE MD     0800   60 75  130/  2/  3 1014.4F
LEWISETTA VA     0800   65 74  250/  2/  3 1014.1F
RAPPAHANNOCK LGT 0800           70/  6/  7 1014.5F
STINGRAY PT      0800   70     120/  4/  6   N/A
YORK RVR RNG VA  0800   70      80/  4/  6 1013.5F
YORKTOWN VA      0800   65 76  230/  2/  3 1013.7F
JAMESTOWN VA     0800   65      40/  2/  4   N/A
DOMINION TERM VA 0800   69      40/  2/  4 1013.8F
KIPTOPEKE VA     0800      78   50/  4/  5   N/A
CHES BAY BRIDGE  0800   70 75   50/  7/  8 1013.2F
CAPE HENRY VA    0800   70      50/  8/  9 1012.5S
CHESAPEAKE LGHT  0700   70      60/  9/ 10 1014.3F
WILLOUBY STN VA  0800   70      40/  5/  7 1012.4F
S CRANEY ISL VA  0800           50/  5/  6 1013.3F
CAPE HENRY BUOY  0800      75                N/A     4/13   3/13
1ST LANDING BUOY 0800   71      50/  8/ 10 1013.4S
CAPE CHARLES BUO 0800      75                N/A     4/13   3/13
OFFSHORE WE BUOY 0800      74                N/A     5/13   5/13
64NM E OF VA BCH 0800   72 77   30/ 12/ 14 1012.6S   5/14   5/14
DUCK PIER NC     0800   72 76   30/ 11/ 12 1012.6R
44100 DUCK FRF   0800      74                N/A     4/13   3/13
44056 DUCK FRF   0800                        N/A     4/13   3/13
OREGON INLET NC  0800   71 75   30/  9/ 13 1012.7F
HATTERAS NC      0800   72 77   40/  8/ 12 1012.8R
DIAMOND SHLS NC  0800   73      20/ 12/ 16 1011.9S   6/11   5/11
CAPE LOOKOUT NC  0700   75      40/ 14/ 17 1012.3S
$$



USA.gov is the U.S. government's official web portal to all federal, state and local government web resources and services.